www.pogodaiklimat.ru

Погода и климат >> Архив погоды >> Казахстан >> Алматы


АРХИВ ПОГОДЫ в Алматы

Время (UTC), дата Ветер
(напр.,м/с)
 
Видим.   Явления Облачность Т
(С)
Тd
(С)
f
(%)
Тe
(С)
Тes
(С)
Комфортность P
(гПа)
Po
(гПа)
Тmin
(С)
Tmax
(С)
R
(мм)
R24
(мм)
S
(см)
12 11.10 штиль 0 10 км 10/4 600 м
[Cb cap Ac trans]
+13.9 +3.5 49 +14 +14 по сезону 1019.9 923.3
15 11.10 штиль 0 10 км 10/3 600 м
[Cb cap Ac trans]
+13.3 +4.5 55 +13 +13 по сезону 1020.7 923.8 +14.9
18 11.10 штиль 0 н/о 10/0
[Ac As]
+13.1 +4.0 54 +13 +13 тепло 1019.9 923.0 +14.9
21 11.10 штиль 0 н/о 10/0
[Ac As]
+11.7 +5.5 66 +11 +11 тепло 1020.0 922.7
00 12.10 штиль 0
{2}
н/о ясно +9.9 +2.5 60 +10 +10 тепло 1019.6 921.6
03 12.10 штиль 0 10 км ясно +13.1 +3.2 51 +13 +15 тепло 1018.1 921.4
06 12.10 С 1 10 км 1/1 1000 м
[Cu hum]
+17.4 +6.0 47 +18 +27 тепло 1015.6 920.6 +9.1
09 12.10 З 1 10 км 3/3 600 м
[Cb cap Ci fib]
+19.8 +8.1 47 +22 +26 комфорт 1012.8 918.8
12 12.10 С 1 10 км 3/3 1000 м
[Cu hum]
+16.8 +8.5 58 +18 +18 тепло 1013.2 918.2
15 12.10 штиль 0 н/о 8/8 600 м
[Cb cap]
+14.1 +6.3 59 +14 +14 тепло 1013.2 917.3 +20.3
18 12.10 ЮВ 1 н/о ясно +12.9 +3.3 52 +13 +13 тепло 1011.2 915.0 +20.3
21 12.10 С 1 н/о ясно +10.3 +2.8 60 +10 +10 по сезону 1011.4 914.4
00 13.10 штиль 0
{4}
н/о 10/0
[Ci sp]
+9.8 +2.9 62 +9 +9 тепло 1011.4 914.2
03 13.10 штиль 0 10 км 10/0
[Ci]
+13.2 +4.4 55 +13 +15 тепло 1011.3 915.3
06 13.10 В 1 10 км 6/3 1000 м
[Cu med, cong Ci]
+18.7 +7.3 47 +20 +26 тепло 1009.5 915.4 +9.4
09 13.10 штиль 0 10 км 10/8 600 м
[Cb cap Ac trans Ci fib]
+16.8 +7.7 55 +17 +17 тепло 1011.0 916.2
12 13.10 Ю 1 10 км 10/10 600 м
[Cb cap]
+10.5 +2.4 57 +10 +10 прохладно 1018.0 920.5
15 13.10 С 1 н/о 10/10 600 м
[Cb cap]
+7.8 +2.3 68 +7 +7 прохладно 1021.4 922.6 +19.8
18 13.10 СВ 1 н/о ливневой дождь 10/10 600 м
[Cb cap]
+4.4 +3.7 95 +3 +3 холодно 1024.5 924.3 +19.8
21 13.10 штиль 0 н/о ливневой дождь 10/10 600 м
[Cb cap]
+2.1 +1.9 99 +1 +1 холодно 1028.9 927.5
00 14.10 СВ 1
{4}
н/о слабый ливневой дождь 10/10 600 м
[Cb cap]
+1.9 +1.7 99 -0 -0 холодно 1029.2 927.7
03 14.10 штиль 0 1000 м в посл. час ливневой снег 10/10 300 м
[St]
+1.0 +0.8 99 -0 -0 очень
холодно
1029.5 927.5
06 14.10 штиль 0 10 км 9/3 600 м
[Cb cap Ac trans Ci fib]
+5.4 -2.3 58 +5 +9 очень
холодно
1028.3 927.9 +0.9 9
09 14.10 С 1 10 км 8/3 600 м
[Cu med, cong Ac trans Ci fib]
+8.3 -1.2 51 +8 +11 холодно 1024.2 925.3
12 14.10 С 1 10 км 10/3 600 м
[Cu med, cong Ac trans Ci fib]
+5.7 -0.3 65 +5 +5 очень
холодно
1026.1 926.2
15 14.10 штиль 0 н/о 10/0
[Ac trans Ci fib]
+4.0 +0.5 78 +3 +3 холодно 1026.2 925.6 +8.9
18 14.10 штиль 0 н/о 10/0
[Ci sp]
+3.9 +0.4 78 +3 +3 прохладно 1023.9 923.6 +8.9
21 14.10 штиль 0 н/о 10/10 600 м
[Cb cap]
+4.0 +0.2 76 +3 +3 прохладно 1021.1 921.0
00 15.10 штиль 0
{5}
н/о 10/10 600 м
[Cb cap]
+3.8 +1.6 86 +3 +3 по сезону 1018.3 918.5
03 15.10 штиль 0 20 км 10/4 600 м
[Cb cap Ac trans]
+4.3 +2.2 86 +3 +4 холодно 1016.3 916.8
06 15.10 штиль 0 20 км 10/5 600 м
[Cb cap Ac trans]
+5.9 0.0 66 +5 +7 очень
холодно
1013.5 914.9 +3.3
09 15.10 штиль 0 20 км 10/6 600 м
[Cb cap As trans]
+8.5 +1.6 62 +8 +9 прохладно 1009.5 912.1
12 15.10 штиль 0 10 км 10/4 600 м
[Cb cap As trans]
+7.5 +2.5 71 +7 +7 холодно 1010.3 912.5
15 15.10 штиль 0 н/о 10/5 600 м
[Cb cap As trans]
+6.1 +2.4 77 +5 +5 холодно 1012.7 914.2 +8.9
18 15.10 штиль 0 н/о 10/6 1000 м
[Cb cap Ac As]
+7.1 +0.3 62 +7 +7 по сезону 1016.4 917.8 +8.9
21 15.10 штиль 0 н/о ливневой дождь 10/10 600 м
[Cb cap]
+5.9 +3.2 83 +5 +5 по сезону 1018.8 919.7
00 16.10 штиль 0
{4}
н/о ливневой дождь 10/10 600 м
[Cb cap]
+1.5 +0.7 94 0 0 прохладно 1022.4 921.3
03 16.10 штиль 0 10 км слабый ливневой дождь со снегом 10/10 600 м
[Cb cap]
+0.9 +0.1 94 -0 -0 очень
холодно
1024.5 923.0
06 16.10 штиль 0 10 км в посл. час ливневой снег 10/8 600 м
[Cb cap Ac As]
+4.5 +1.3 80 +4 +4 очень
холодно
1021.7 921.8 +0.4 7
09 16.10 С 1 10 км 10/10 600 м
[Cb cap]
+3.9 +0.1 76 +3 +3 очень
холодно
1021.9 921.7
12 16.10 С 1 10 км {ливн. осадки} 10/10 600 м
[Cb cap]
+3.3 +1.6 89 +2 +2 очень
холодно
1023.9 923.4
15 16.10 ЮВ 1 н/о слабый ливневой снег 10/10 600 м
[Cb cap]
+1.7 -0.4 86 -0 -0 очень
холодно
1027.0 925.6 +5.0
18 16.10 В 1 н/о слабый ливневой снег 10/10 600 м
[Cb cap]
+0.9 -1.0 87 -1 -1 очень
холодно
1028.7 926.8 +5.0 0.4
21 16.10 Ю 1 н/о слабый ливневой снег 10/10 600 м
[Cb cap]
-0.1 -0.7 96 -2 -2 очень
холодно
1030.5 928.1
00 17.10 штиль 0
{4}
н/о {ливн. осадки} 10/10 600 м
[Cb cap]
+0.5 -1.4 87 -1 -1 холодно 1031.6 929.3
03 17.10 штиль 0 4000 м слабый ливневой снег 10/10 600 м
[Cb cap]
+0.6 -1.6 85 -1 -1 очень
холодно
1034.0 931.4 1
06 17.10 штиль 0 4000 м слабый ливневой снег 10/10 600 м
[Cb cap]
+0.3 -1.1 90 -1 -1 очень
холодно
1034.6 931.9 -0.2 0.7
09 17.10 штиль 0 10 км слабый ливневой снег 10/10 600 м
[Cb cap]
+0.7 -1.2 87 -0 -0 очень
холодно
1034.8 932.2
12 17.10 штиль 0 4000 м слабый ливневой снег 10/10 600 м
[Cb cap]
-0.9 -1.8 94 -2 -2 очень
холодно
1036.7 933.3
15 17.10 штиль 0 н/о в посл. час ливневой снег 10/5 1000 м
[Cu med, cong Ac As]
-1.9 -3.0 92 -3 -3 очень
холодно
1036.4 932.7 +1.5
18 17.10 штиль 0 н/о {ливн. осадки} ясно -2.5 -5.4 80 -4 -4 очень
холодно
1035.3 931.5 +1.5 6
21 17.10 штиль 0 н/о ясно -4.1 -6.3 85 -5 -5 очень
холодно
1033.9 929.6
00 18.10 штиль 0
{3}
н/о ясно -4.9 -8.0 79 -6 -6 очень
холодно
1032.1 927.7
03 18.10 штиль 0 20 км 10/0
[Ac trans Cs]
-0.4 -2.1 88 -2 -1 очень
холодно
1029.2 926.8 5
06 18.10 штиль 0 10 км 10/0
[Ac lent Ci fib]
+3.6 -0.6 74 +3 +6 очень
холодно
1026.2 925.5 -4.9
09 18.10 ЮЗ 1 10 км 10/0
[Ci ing]
+6.6 -2.9 51 +6 +11 холодно 1022.2 922.9

 

Местоположение метеостанции Алматы (Алматинская область, Казахстан): широта 43.23 долгота 76.93 высота над уровнем моря 851 м.

В архиве по умолчанию представлена погода в Алматы за последнюю неделю. Архивные данные за месяц целиком и за предыдущие месяцы, начиная с января 2011 года, Вы можете получить, выбрав интересующий диапазон дат из раскрывающегося списка и нажав кнопку "Ввод!".


*Определитесь, кто Вы:
робот инопланетянин человек

Внимание! Время в таблицах - всемирное. Для получения местного времени необходимо прибавить поправку, которая в Алматы равна 6 ч.

Смотрите также архив погоды в соседних городах и на ближайших метеорологических станциях:

Погода в Алматы АМС (Алматинская область, Казахстан) (4 км)
Погода в Каменском плато (Алматинская область, Казахстан) (6 км)
Погода в Медеу (Алматинская область, Казахстан) (12 км)
Погода в Карасайском (Алматинская область, Казахстан) (15 км)
Погода в Шымбулаке (Алматинская область, Казахстан) (16 км)
Погода в Большом Алматинском озере (Алматинская область, Казахстан) (18 км)
Погода в Альмереке (Алматинская область, Казахстан) (21 км)
Погода в Коныролене (Алматинская область, Казахстан) (24 км)
Погода в Рыскулово (Алматинская область, Казахстан) (30 км)
Погода в Илийском (Алматинская область, Казахстан) (33 км)

Пояснения к столбцам:

Ветер - указаны скорость ветра в м/с - средняя за 10 мин, порывы в срок и между сроками (в фигурных скобках) и направление, откуда дует ветер: С - северный, СВ - северо-восточный, В - восточный, ЮВ - юго-восточный, Ю - южный, ЮЗ - юго-западный, З - западный, СЗ - северо-западный.
Видимость - горизонтальная дальность видимости в метрах или километрах. При видимости от 1 до 10 км при отсутствии осадков обычно наблюдается дымка, при ухудшении видимости до 1 км и менее - туман. В сухую погоду видимость может ухудшаться дымом, пылью или мглою.
Явления - указаны атмосферные явления, наблюдавшиеся в срок или в последний час перед сроком; фигурными скобками обозначены явления, наблюдавшиеся между сроками (за 1-3 часа до срока); квадратными скобками обозначены град или гололедные отложения с указанием их диаметра в мм.
Облачность - указаны через наклонную черту общая и нижняя облачность в баллах и высота нижней границы облаков в метрах; квадратными скобками обозначены формы облаков: Ci - перистые, Cs - перисто-слоистые, Cc - перисто-кучевые, Ac - высококучевые, As - высокослоистые, Sc - слоисто-кучевые, Ns - слоисто-дождевые, Cu - кучевые, Cb - кучево-дождевые. Подробнее классификацию облаков см. в Атласе облаков (PDF).
T - Температура воздуха - температура, измеренная на высоте 2 м над землей.
Td - Температура точки росы - температура, при понижении до которой содержащийся в воздухе водяной пар достигнет насыщения.
f - Относительная влажность воздуха - влажноcть воздуха, измеренная на высоте 2 м над землей.
Te - Эффективная температура - температура, которую ощущает одетый по сезону человек в тени. Характеристика душности погоды. При расчете учитывается влияние влажности воздуха и скорости ветра на теплоощущения человека.
Tes - Эффективная температура на солнце - температура, которую ощущает человек, с поправкой на солнечный нагрев. Характеристика знойности погоды. Зависит от высоты солнца над горизонтом, облачности и скорости ветра. Ночью, в пасмурную погоду, а также при ветре 12 м/с и более поправка равна нулю.
P - Атмосферное давление - приведенное к уровню моря атмосферное давление.
Po - Атмосферное давление - измеренное на уровне метеостанции атмосферное давление.
Tmin - Минимальная температура - минимум температуры воздуха на высоте 2 м над землей.
Tmax - Максимальная температура - максимум температуры воздуха на высоте 2 м над землей.
R - Количество осадков - Количество выпавших осадков за период времени, мм. При наведении курсора мыши на число - период времени, за который выпало указанное количество осадков.
R24 - Количество осадков - Количество выпавших осадков за 24 часа, мм.
S - Снежный покров - Высота снежного покрова, см. При наведении курсора мыши на число - состояние снежного покрова и степень покрытия местности в баллах.